This demonstration page uses our WeatherBlox Daily Observations layout. Learn more.

Left ArrowRight Arrow

34.02893, -84.19858

Hourly Observations for February 4, 2022

Temp ( °F °C ) Dew Point ( °F °C ) Humidity (%) Winds ( mph kmh ) Pressure ( in mb ) Visibility ( mi km ) Precip ( " mm )
12:00 am 00:00 Cloudy with Rain 63 17.2 61 16.1 93 93 S 10 17 29.98 1015 4 6 0.02 0.51
12:19 am 00:19 Cloudy with Rain 62 16.7 61 16.1 96 96 SSE 6 9 29.97 1015 4 6 0.08 2.03
12:44 am 00:44 Cloudy with Rain 62 16.7 61 16.1 96 96 SSE 6 9 29.97 1015 4 6 0.16 4.06
12:51 am 00:51 Cloudy with Rain 63 17 61 16 94 94 SSW 5 7 29.97 1015 4 6 0.19 4.83
12:53 am 00:53 Cloudy with Rain 62 16.7 61 16.1 96 96 SW 8 13 29.98 1015 4 6 0.20 5.08
1:02 am 01:02 Cloudy with Rain 62 16.7 60 15.6 93 93 S 8 13 29.99 1015 3 5 0.04 1.02
1:10 am 01:10 Cloudy with Rain 62 16.7 61 16.1 96 96 S 7 11 29.98 1015 3 5 0.08 2.03
1:53 am 01:53 Cloudy with Rain 62 16.7 61 16.1 96 96 SSE 7 11 29.94 1014 4 6 0.26 6.60
2:36 am 02:36 Cloudy with Rain 63 17.2 61 16.1 93 93 S 9 15 29.95 1014 2 3 0.15 3.81
2:45 am 02:45 Cloudy with Rain 63 17.2 61 16.1 93 93 S 9 15 29.96 1015 5 8 0.17 4.32
2:53 am 02:53 Cloudy with Light Rain 63 17.2 61 16.1 93 93 S 8 13 29.96 1015 5 8 0.18 4.57
3:17 am 03:17 Cloudy with Light Rain 63 17.2 61 16.1 93 93 SSE 6 9 29.94 1014 10 16 0.00 0.00
3:53 am 03:53 Cloudy with Light Rain 63 17.2 61 16.1 93 93 S 7 11 29.94 1014 10 16 0.01 0.25
4:19 am 04:19 Cloudy with Light Rain 63 17.2 61 16.1 93 93 S 7 11 29.95 1014 9 14 0.00 0.00
4:53 am 04:53 Cloudy with Light Rain 63 17.2 61 16.1 93 93 SSW 6 9 29.95 1014 8 13 0.02 0.51
5:30 am 05:30 Cloudy with Light Rain 64 17.8 61 16.1 90 90 S 9 15 29.95 1014 8 13 0.03 0.76
5:53 am 05:53 Cloudy with Light Rain 63 17.2 61 16.1 93 93 S 8 13 29.96 1014 9 14 0.03 0.76
6:50 am 06:50 Cloudy with Rain 63 17 61 16 94 94 NW 9 15 29.98 1015 3 4 0.09 2.29
6:53 am 06:53 Cloudy with Rain 60 15.6 58 14.4 93 93 NW 12 19 29.98 1015 4 6 0.09 2.29
7:53 am 07:53 Cloudy with Light Rain 50 10 48 8.9 93 93 WNW 10 17 30.06 1018 10 16 0.03 0.76
8:53 am 08:53 Cloudy with Light Rain 46 7.8 44 6.7 93 93 W 7 11 30.08 1019 4 6 0.05 1.27
9:53 am 09:53 Cloudy with Light Rain 45 7.2 42 5.6 90 90 WNW 9 15 30.10 1019 10 16 0.03 0.76
10:02 am 10:02 Cloudy 45 7.2 43 6.1 93 93 WNW 8 13 30.13 1020 10 16 0.00 0.00
1:53 pm 13:53 Cloudy 43 6.1 40 4.4 89 89 WNW 14 22 30.11 1020 10 16 0.00 0.00
2:53 pm 14:53 Cloudy 42 5.6 39 3.9 89 89 WNW 12 19 30.11 1020 10 16 0.00 0.00
3:39 pm 15:39 Cloudy 43 6.1 39 3.9 86 86 NW 13 20 30.16 1021 10 16 0.00 0.00
3:53 pm 15:53 Cloudy 43 6.1 39 3.9 86 86 NW 9 15 30.14 1021 10 16 0.00 0.00
4:53 pm 16:53 Cloudy 42 5.6 38 3.3 85 85 WNW 13 20 30.13 1020 10 16 0.00 0.00
5:53 pm 17:53 Cloudy 41 5 37 2.8 86 86 WNW 13 20 30.15 1021 10 16 0.00 0.00
6:53 pm 18:53 Cloudy 40 4.4 36 2.2 86 86 W 12 19 30.18 1022 10 16 0.00 0.00
7:53 pm 19:53 Cloudy 39 3.9 35 1.7 86 86 NW 12 19 30.22 1024 10 16 0.00 0.00
8:53 pm 20:53 Cloudy 38 3.3 33 0.6 83 83 WNW 12 19 30.26 1025 10 16 0.00 0.00
9:53 pm 21:53 Mostly Cloudy 36 2.2 32 0 86 86 WNW 13 20 30.28 1025 10 16 0.00 0.00
10:53 pm 22:53 Cloudy 34 1.1 30 -1.1 85 85 NW 17 28 30.30 1026 10 16 0.00 0.00
11:05 pm 23:05 Cloudy 34 1.1 30 -1.1 85 85 NW 15 24 30.32 1027 10 16 0.00 0.00
11:53 pm 23:53 Mostly Cloudy 33 0.6 28 -2.2 82 82 WNW 14 22 30.32 1027 10 16 0.00 0.00

Powered by AerisWeather